This is the latest recevied weather packets stored in our database for station/object ALANSN-2. If no packets are shown the sender has not sent any weather packets the latest 10 day(s).
| Time | Temp. | Humidity | Pressure | Rain* | Wind** | Luminosity | Snow |
|---|---|---|---|---|---|---|---|
| 1788027720 | 23.33° C | 79% | 1028.7 hPa | 0 mm | - | 162 W/m² | - |
| 1788027420 | 23.33° C | 79% | 1028.7 hPa | 0 mm | - | 162 W/m² | - |
| 1788027120 | 23.33° C | 78% | 1028.9 hPa | 0 mm | - | 168 W/m² | - |
| 1788026820 | 23.33° C | 79% | 1028.9 hPa | 0 mm | - | 147 W/m² | - |
| 1788026520 | 23.33° C | 79% | 1028.9 hPa | 0 mm | - | 147 W/m² | - |
| 1788026220 | 23.33° C | 79% | 1029.1 hPa | 0 mm | - | 145 W/m² | - |
| 1788025920 | 23.33° C | 77% | 1029 hPa | 0 mm | - | 129 W/m² | - |
| 1788025620 | 23.33° C | 76% | 1029 hPa | 0 mm | - | 108 W/m² | - |
| 1788025320 | 23.33° C | 76% | 1029 hPa | 0 mm | - | 118 W/m² | - |
| 1788025021 | 23.33° C | 76% | 1029.1 hPa | 0 mm | - | 151 W/m² | - |
| 1788024720 | 23.33° C | 75% | 1029.1 hPa | 0 mm | - | 98 W/m² | - |
| 1788024420 | 23.33° C | 74% | 1029 hPa | 0 mm | - | 89 W/m² | - |
| 1788024121 | 23.33° C | 77% | 1029.2 hPa | 0 mm | - | 98 W/m² | - |
| 1788023820 | 23.89° C | 76% | 1029.1 hPa | 0 mm | - | 161 W/m² | - |
| 1788023520 | 23.33° C | 77% | 1029.3 hPa | 0 mm | - | 162 W/m² | - |
| 1788023220 | 23.89° C | 77% | 1029.1 hPa | 0 mm | - | 156 W/m² | - |
| 1788022920 | 23.33° C | 77% | 1029.3 hPa | 0 mm | - | 163 W/m² | - |
| 1788022620 | 23.33° C | 77% | 1029 hPa | 0 mm | - | 165 W/m² | - |
| 1788022320 | 23.33° C | 77% | 1029.2 hPa | 0 mm | - | 212 W/m² | - |
| 1788022020 | 23.33° C | 79% | 1029.4 hPa | 0 mm | - | 230 W/m² | - |
| 1788021720 | 23.33° C | 79% | 1029.4 hPa | 0 mm | - | 198 W/m² | - |
| 1788021420 | 23.33° C | 79% | 1029.3 hPa | 0 mm | - | 203 W/m² | - |
| 1788021120 | 22.78° C | 81% | 1029.5 hPa | 0 mm | - | 161 W/m² | - |
| 1788020820 | 22.78° C | 81% | 1029.3 hPa | 0 mm | - | 162 W/m² | - |
| 1788020520 | 22.78° C | 81% | 1029.4 hPa | 0 mm | - | 154 W/m² | - |
* Rain latest hour (hover to see other rain measurements)
** Current wind speed in m/s (hover to see current wind gust speed)